SCP
0 0 0 0 0 0 0 0 0 0 0 0 0 0 0 0 0 0 0 0 0 0 0 0 0 0 0 0 0 0 0 0 0 0 0 0 0 0 0 0 0 0 0 0
0 0 0 0 0 0 0 0 0 0 0 0 0 0 0 0 0 0 0 0 0 0 0 0 0 0 0 0 0 0 0 0 0 0 0 0 0 0 0 0 0 0 0 0
0 0 0 0 0 0 0 0 0 0 0 0 0 0 0 0 0 0 0 0 0 0 0 0 0 0 0 0 0 0 0 0 0 0 0 0 0 0 0 0 0 0 0 0
0 0 0 0 0 0 0 0 0 0 0 0 0 0 0 0 0 0 0 0 0 0 0 0 0 0 0 0 0 0 0 0 0 0 0 0 0 0 0 0 0 0 0 0
0 0 0 0 0 0 0 0 0 0 0 0 0 0 0 0 0 0 0 0 0 0 0 0 0 0 0 0 0 0 0 0 0 0 0 0 0 0 0 0 0 0 0 0
0 0 0 0 0 0 0 0 0 0 0 0 0 0 0 0 0 0 0 0 0 0 0 0 0 0 0 0 0 0 0 0 0 0 0 0 0 0 0 0 0 0 0 0
0 0 0 0 0 0 0 0 0 0 0 0 0 0 0 0 0 0 0 0 0 0 0 0 0 0 0 0 0 0 0 0 0 0 0 0 0 0 0 0 0 0 0 0
0 0 0 0 0 0 0 0 0 0 0 0 0 0 0 0 0 0 0 0 0 0 0 0 0 0 0 0 0 0 0 0 0 0 0 0 0 0 0 0 0 0 0 0
0 0 0 0 0 0 0 0 0 0 0 0 0 0 0 0 0 0 0 0 0 0 0 0 0 0 0 0 0 0 0 0 0 0 0 0 0 0 0 0 0 0 0 0
0 0 0 0 0 0 0 0 0 0 0 0 0 0 0 0 0 0 0 0 0 0 0 0 0 0 0 0 0 0 0 0 0 0 0 0 0 0 0 0 0 0 0 0
0 0 0 0 0 0 0 0 0 0 0 0 0 0 -0 0 0 0 0 0 0 0 0 0 0 0 0 0 0 0 0 0 0 0 0 0 0 0 0 0 0 0 0 0
0 0 0 0 0 0 0 0 0 0 0 0 0 0 0 0 0 0 0 0 0 0 0 0 0 0 0 0 0 0 0 0 0 0 0 0 0 0 0 0 0 0 0 0
0 0 0 0 0 0 0 0 0 0 0 0 0 0 0 0 0 0 0 0 0 0 0 0 0 0 0 0 0 0 0 0 0 0 0 0 0 0 0 0 0 0 0 0
0 0 0 0 0 0 0 0 0 0 0 0 0 0 0 0 0 0 0 0 0 0 0 0 0 0 0 0 0 0 0 0 0 0 0 0 0 0 0 0 0 0 0 0
0 0 0 0 0 0 0 0 0 0 0 0 0 0 0 0 0 0 0 0 0 0 0 0 0 0 0 0 0 0 0 0 0 0 0 0 0 0 0 0 0 0 0 0
0 0 0 0 0 0 0 0 0 0 0 0 0 0 0 0 0 0 -0 -0 -0 -0 0 0 0 0 0 0 0 0 0 0 0 0 0 0 0 0 0 0 0 0 0 0
0 0 0 0 0 0 0 0 0 0 0 0 0 0 0 0 0 0 0 -0 -0 -0 -0 0 0 0 0 0 0 0 0 0 0 0 0 0 0 0 0 0 0 0 0 0
0 0 0 0 0 0 0 0 0 0 0 0 0 0 0 0 0 0 0 -0 -0 -0 -0 0 0 0 0 0 0 0 0 0 0 0 0 0 0 0 0 0 0 0 0 0
0 0 0 0 0 0 0 0 0 0 0 0 0 0 0 0 0 0 0 -0 -0 -0 -0 -0 -0 0 0 0 0 0 0 0 0 0 0 0 0 0 0 0 0 0 0 0
0 0 0 0 0 0 0 0 0 0 0 0 0 0 0 0 0 0 0 0 -0 -0 -0 -0 -0 0 0 0 0 0 0 0 0 0 0 0 0 0 0 0 0 0 0 0
0 0 0 0 0 0 0 -0 0 0 0 0 0 0 0 0 0 0 0 0 -0 -0 0 0 0 0 0 0 0 0 0 0 0 0 0 0 0 0 0 0 0 0 0 0
0 0 0 0 0 0 0 0 0 0 0 0 0 0 0 0 0 0 0 0 0 0 0 0 0 0 0 0 0 0 0 0 0 0 0 0 0 0 0 0 0 0 0 0
0 0 0 0 0 0 0 0 0 0 0 0 0 0 0 0 0 0 0 0 0 0 0 0 0 0 0 0 0 0 0 0 0 0 0 0 0 0 0 0 0 0 0 0
0 0 0 0 0 0 0 0 0 0 0 0 0 0 0 0 0 0 0 0 0 0 0 0 0 0 0 0 0 0 0 0 0 0 0 0 0 0 0 0 0 0 0 0
0 0 0 0 0 0 0 0 0 0 0 0 0 0 0 0 0 0 0 0 0 0 0 0 0 0 0 0 0 0 0 0 0 0 0 0 0 0 0 0 0 0 0 0
0 0 0 0 0 0 0 0 0 0 0 0 0 0 0 0 0 0 0 0 0 0 0 0 0 0 0 0 0 0 0 0 0 0 0 0 0 0 0 0 0 0 0 0
Wind_Speed
3 1 2 3 2 2 2 4 5 4 1 3 7 8 5 3 3 2 2 3 4 4 5 5 5 5 5 5 5 4 4 4 3 2 2 2 3 2 2 3 3 4 4 4
2 2 1 0 1 3 4 5 5 3 2 4 7 8 5 2 1 1 2 3 4 6 6 7 7 6 6 6 5 5 4 5 4 3 2 2 2 2 3 3 3 4 4 4
1 2 2 2 3 3 4 4 3 4 6 5 5 5 2 2 2 2 3 3 4 5 7 8 8 7 7 6 6 5 5 5 4 3 2 2 2 2 2 2 2 3 3 3
0 2 1 2 2 2 3 2 3 4 4 3 2 4 3 3 1 2 3 3 4 5 6 7 8 9 8 7 5 5 5 5 4 4 2 2 3 3 3 2 2 2 3 3
1 2 1 2 1 2 2 4 5 5 4 4 4 4 4 3 1 2 3 4 4 5 6 7 8 8 8 7 5 5 5 5 4 3 2 2 3 2 1 1 2 2 2 3
1 1 1 1 2 2 3 4 5 3 1 4 5 4 3 1 0 2 3 3 4 5 6 7 8 7 7 7 6 5 4 4 3 2 2 2 2 2 2 2 2 2 1 1
1 3 2 1 2 1 1 1 1 1 3 4 3 3 3 2 3 2 3 3 3 4 5 7 8 8 8 8 7 6 5 4 4 2 2 2 2 2 2 2 2 1 1 1
0 1 2 1 1 1 1 1 1 2 2 2 1 3 1 5 4 3 2 3 4 5 5 6 7 7 7 8 7 6 6 5 4 3 2 2 3 2 1 1 2 1 1 1
2 0 2 1 1 1 1 0 1 2 3 3 4 2 3 3 3 2 3 3 4 4 5 6 7 7 7 7 7 6 5 5 4 3 2 2 2 2 1 2 2 1 1 2
2 2 1 2 1 2 1 2 1 2 3 3 3 2 1 1 0 1 2 3 4 4 5 6 6 7 6 6 6 6 5 5 4 3 2 2 2 2 2 2 2 2 2 2
2 2 1 2 3 3 3 2 2 3 3 2 3 2 2 3 2 0 2 2 3 4 5 5 5 6 6 6 6 6 5 5 4 4 3 3 3 3 3 2 2 2 2 2
1 1 2 2 1 1 1 2 1 1 3 2 3 4 2 4 3 1 0 2 2 3 3 4 4 5 6 6 7 6 6 5 5 4 4 3 3 3 3 3 3 2 2 3
2 1 2 1 1 2 3 3 2 2 2 3 3 4 2 2 1 1 0 1 2 3 3 4 4 5 6 6 6 6 6 6 5 5 5 4 4 3 3 4 4 4 3 3
2 2 3 3 2 1 3 4 4 3 3 4 5 5 3 2 1 1 0 1 1 2 3 4 4 5 5 6 6 6 6 6 6 5 5 5 4 3 3 3 3 3 3 4
2 3 4 6 7 6 7 7 6 7 6 5 5 5 6 3 2 1 1 1 1 2 3 4 4 4 5 5 5 5 6 5 5 5 6 5 4 3 3 4 4 3 4 4
2 4 5 6 6 6 8 8 7 7 7 9 8 8 4 3 1 1 2 2 1 2 2 3 3 4 5 5 5 5 5 6 5 5 5 5 5 5 4 4 4 4 4 3
2 3 3 4 3 4 6 6 7 4 4 4 6 5 2 2 3 3 3 2 2 2 2 2 2 3 3 4 4 4 5 5 5 5 5 5 5 5 5 5 5 5 4 3
3 3 2 4 5 5 3 2 1 4 4 4 4 3 2 3 3 3 2 2 2 2 1 1 1 2 3 3 3 3 4 4 5 5 5 5 5 5 5 4 4 4 3 3
2 2 3 3 4 6 2 2 1 2 3 2 4 4 3 1 3 3 2 2 2 2 1 0 0 1 2 2 3 3 3 4 4 5 5 5 5 5 4 4 4 4 3 3
2 2 2 3 3 5 2 2 1 1 3 1 1 2 2 1 2 3 0 1 1 1 1 1 1 1 1 2 2 2 3 3 4 4 4 4 4 4 4 4 4 3 3 3
3 4 5 5 5 6 1 2 2 2 4 1 0 2 2 3 4 3 1 1 1 2 2 2 1 1 1 1 1 2 2 3 3 4 4 4 4 4 4 4 3 3 3 3
6 5 5 4 5 8 2 3 3 3 1 1 1 2 2 3 3 2 2 2 2 2 2 2 2 2 1 0 1 2 2 3 3 3 4 4 4 4 4 4 4 3 3 3
6 5 4 6 7 3 5 4 3 0 2 2 2 3 3 3 4 3 3 2 3 3 3 2 2 2 1 1 1 2 2 2 2 3 4 4 4 4 3 3 4 4 3 3
4 3 3 5 6 4 4 4 3 3 3 3 3 3 3 4 4 4 3 3 2 3 3 2 2 2 2 2 2 2 2 1 2 3 3 3 3 4 4 3 3 3 3 3
4 3 4 6 6 5 4 3 2 2 2 3 3 3 3 4 4 4 4 3 3 2 3 3 3 4 4 3 3 2 1 1 2 3 3 3 3 3 3 3 3 3 3 3
7 8 7 7 4 4 3 1 0 2 3 3 3 4 3 3 4 4 4 3 3 2 2 3 4 4 3 3 3 2 2 1 2 3 3 2 2 3 3 3 4 5 5 6
Wind_Direction
156 202 193 186 223 307 299 275 271 275 294 293 262 272 281 285 289 321 342 342 340 348 351 351 347 341 332 331 325 314 305 295 288 267 256 248 251 249 247 235 229 227 218 210
165 199 168 126 244 264 263 271 280 295 333 294 273 277 271 245 228 18 3 4 4 358 355 352 346 341 338 330 325 323 317 306 294 279 264 251 249 244 238 238 232 226 217 209
144 101 142 209 235 258 273 263 284 311 315 270 277 281 199 147 110 40 25 24 16 1 352 346 340 342 341 335 332 325 319 314 308 298 284 274 270 262 243 240 235 228 217 212
100 116 198 231 253 277 282 334 313 300 305 288 289 288 232 178 138 20 14 25 15 6 357 348 344 344 341 333 329 327 319 314 308 300 284 261 251 251 254 251 242 238 224 218
79 107 229 251 286 322 287 316 289 277 277 288 238 245 263 153 217 348 9 15 7 8 360 349 344 340 336 332 330 323 318 317 310 298 284 273 267 268 281 283 259 247 237 229
200 103 5 320 325 247 284 290 272 238 248 264 219 212 268 160 174 352 7 10 6 6 358 351 344 342 340 336 331 326 324 322 323 322 321 299 282 284 287 280 264 254 243 239
163 157 149 265 285 200 279 330 336 223 223 246 179 199 251 89 81 56 14 0 7 8 359 351 347 348 345 341 340 337 339 342 343 343 336 313 296 278 273 284 274 271 275 270
294 166 150 175 318 322 290 285 334 293 282 314 249 229 188 91 81 62 34 16 14 7 357 349 349 347 342 339 341 344 346 346 347 353 344 320 295 282 279 299 287 279 277 279
353 8 125 137 15 319 307 285 9 290 280 260 239 195 128 79 67 42 16 12 6 3 358 353 352 348 347 346 346 343 352 359 3 1 348 333 316 318 331 324 308 300 307 285
335 298 224 135 171 226 280 320 306 278 303 292 276 225 220 130 312 358 1 355 360 7 360 354 354 353 352 351 347 354 4 0 354 348 348 355 354 357 354 338 343 342 325 323
318 296 261 196 207 194 190 219 251 267 268 285 295 294 79 142 144 11 337 348 6 1 355 356 354 352 356 358 1 4 5 1 1 1 4 9 4 8 7 2 357 351 351 337
330 306 281 234 127 38 252 241 218 272 289 263 272 275 92 103 121 134 301 347 2 358 356 355 355 358 1 3 3 4 4 5 5 6 8 13 15 19 18 6 355 0 355 339
330 300 304 229 169 200 243 239 235 264 288 260 256 257 95 76 92 106 87 341 347 350 357 358 360 3 3 2 3 3 8 9 10 17 16 20 17 15 14 7 359 3 2 6
310 267 251 267 289 267 251 235 215 209 237 262 242 261 291 297 303 301 268 319 332 341 0 2 359 360 1 1 1 0 4 8 8 14 17 19 15 14 15 12 11 5 8 19
278 274 273 274 274 267 260 254 230 219 231 249 273 281 274 279 268 249 236 278 314 344 356 358 355 354 356 356 356 360 1 4 8 14 14 10 11 13 17 18 14 6 11 11
272 282 292 277 253 248 258 250 236 234 235 249 272 283 265 268 247 239 242 249 272 304 331 347 353 352 350 350 353 357 359 359 8 16 10 2 8 13 16 13 10 10 6 2
265 286 303 286 295 297 268 239 211 212 217 228 251 259 270 274 248 238 236 242 258 272 301 325 343 341 341 347 353 356 357 358 6 11 4 360 5 10 11 10 13 8 0 2
272 290 280 291 308 257 236 75 159 215 233 228 257 278 277 267 264 250 218 214 241 248 266 297 339 336 341 350 355 358 1 3 4 3 359 357 1 4 5 8 8 358 354 355
238 269 281 283 286 276 232 152 148 221 265 229 240 266 286 323 329 287 227 199 214 203 174 157 347 337 340 346 350 353 356 359 2 356 351 351 354 355 354 356 352 348 349 348
226 251 265 268 270 264 264 117 97 81 272 311 214 264 289 90 279 268 212 152 171 151 144 145 119 26 333 326 339 345 344 352 349 343 341 342 344 344 342 341 336 337 342 340
196 212 224 241 256 267 251 147 125 179 256 330 284 246 235 226 238 271 286 235 197 188 179 161 162 211 263 304 316 320 330 335 330 333 335 336 338 338 338 336 330 332 337 339
193 201 208 208 230 252 169 143 186 226 297 309 277 265 254 260 282 293 277 245 214 203 199 187 199 229 239 235 269 294 307 316 328 329 328 327 330 333 337 331 328 330 337 344
209 207 204 208 223 218 169 199 215 184 279 284 278 282 274 276 278 279 272 255 226 211 208 203 213 233 238 227 235 267 282 312 322 317 313 314 323 325 323 325 327 329 338 342
228 194 233 265 261 250 220 216 226 231 246 266 271 276 276 271 274 274 264 255 237 221 210 206 208 229 243 242 247 256 275 282 298 300 302 311 319 320 321 323 321 322 328 334
240 194 228 254 268 282 251 228 241 254 268 276 276 264 259 265 269 264 261 252 239 237 217 202 214 230 238 235 239 247 257 278 283 288 295 302 304 306 309 314 313 314 306 310
207 205 210 233 225 226 250 241 196 260 264 265 273 277 267 249 259 262 258 246 235 233 229 223 227 235 240 234 239 236 228 250 270 280 289 292 293 297 301 308 317 316 306 311